Date,TemperatureHighF,TemperatureAvgF,TemperatureLowF,DewpointHighF,DewpointAvgF,DewpointLowF,HumidityHigh,HumidityAvg,HumidityLow,PressureMaxIn,PressureMinIn,WindSpeedMaxMPH,WindSpeedAvgMPH,GustSpeedMaxMPH,PrecipitationSumIn
2013-3-1,42,29,19,16,11,6,60,48,34,30.47,30.38,20,5,21,0.00
2013-3-2,48,36,26,20,16,14,64,45,32,30.45,30.15,18,12,18,0.00
2013-3-3,45,38,32,22,16,10,65,42,29,30.12,29.67,33,18,33,0.00
2013-3-4,38,29,14,25,20,11,89,70,38,30.16,29.66,26,11,26,0.00
2013-3-5,45,29,9,12,4,-5,87,39,16,30.41,30.16,21,10,21,0.03
2013-3-6,47,39,31,19,11,2,38,31,26,30.24,29.83,33,18,33,0.00
2013-3-7,51,44,38,14,10,6,36,25,18,29.88,29.78,47,8,47,0.00
2013-3-8,46,38,29,25,18,11,77,47,30,29.83,29.52,22,4,28,0.00
2013-3-9,29,24,17,22,20,13,89,83,71,30.10,29.48,23,2,23,0.00
2013-3-10,36,21,10,17,10,4,87,65,35,30.31,30.10,17,3,18,0.20
2013-3-11,44,36,24,17,14,8,53,41,32,30.29,30.00,23,7,23,0.01
2013-3-12,46,34,22,23,18,14,80,55,36,30.27,30.08,14,2,22,0.00
2013-3-13,52,40,33,23,18,14,51,41,30,30.29,30.20,16,4,21,0.00
2013-3-14,58,45,36,20,16,13,42,32,20,30.30,30.12,13,3,16,0.00
2013-3-15,57,48,42,22,17,14,36,29,22,30.11,29.78,20,5,24,0.00
2013-3-16,45,38,30,30,23,17,86,58,33,29.80,29.69,12,2,15,0.00
2013-3-17,41,33,27,27,19,11,86,58,32,29.82,29.57,25,5,30,0.01
2013-3-18,36,29,23,15,8,1,59,40,31,30.04,29.81,22,7,30,0.00
2013-3-19,41,32,24,10,6,-4,45,34,15,30.26,30.02,12,3,21,0.00
2013-3-20,45,32,18,21,10,0,57,42,26,30.27,29.86,21,4,27,0.00
2013-3-21,41,34,27,27,18,5,84,53,34,29.86,29.52,29,6,40,0.00
2013-3-22,38,28,20,20,14,5,89,59,32,29.81,29.66,16,3,19,0.00
2013-3-23,26,13,4,13,8,0,92,81,44,30.35,29.71,16,3,18,0.00
2013-3-24,22,10,2,8,3,-2,92,74,50,30.47,30.33,12,2,16,0.05
2013-3-25,31,15,2,11,4,-4,92,63,28,30.52,30.44,13,1,16,0.02
2013-3-26,46,32,12,18,12,4,78,45,30,30.49,30.05,18,4,21,0.00
2013-3-27,51,39,32,25,17,11,61,42,24,30.05,29.91,17,4,29,0.00
2013-3-28,52,40,28,23,20,15,72,47,24,30.10,30.00,11,2,17,0.00
2013-3-29,54,43,35,24,20,16,55,42,26,30.09,29.98,18,3,18,0.00
2013-3-30,53,43,36,25,21,17,61,42,27,30.06,29.92,18,3,21,0.00
2013-3-31,57,42,28,27,20,10,90,49,21,30.04,29.90,15,3,16,0.00